This demonstration page uses our WeatherBlox Daily Observations layout. Learn more.

Left ArrowRight Arrow

40.92945, -100.16068

Hourly Observations for September 2, 2020

Temp ( °F °C ) Dew Point ( °F °C ) Humidity (%) Winds ( mph kmh ) Pressure ( in mb ) Visibility ( mi km ) Precip ( " mm )
12:15 am 00:15 Clear 56 13.2 51 10.4 83 83 WNW 7 11 29.89 1012 10 16 0.00 0.00
12:35 am 00:35 Clear 56 13.4 51 10.6 83 83 NW 9 15 29.90 1013 10 16 0.00 0.00
12:55 am 00:55 Clear 55 13 51 10.4 84 84 WNW 7 11 29.91 1013 10 16 0.00 0.00
1:15 am 01:15 Clear 54 12.3 50 10 86 86 WNW 5 7 29.92 1013 10 16 0.00 0.00
1:35 am 01:35 Clear 55 12.6 50 10.1 85 85 WNW 5 7 29.93 1013 10 16 0.00 0.00
1:55 am 01:55 Clear 55 12.5 50 10 85 85 WNW 6 9 29.93 1013 10 16 0.00 0.00
2:15 am 02:15 Clear 53 11.7 49 9.5 87 87 WNW 6 9 29.95 1014 10 16 0.00 0.00
2:35 am 02:35 Clear 52 11 48 8.9 87 87 WNW 5 7 29.95 1014 10 16 0.00 0.00
2:55 am 02:55 Clear 53 11.5 49 9.2 86 86 WNW 8 13 29.95 1014 10 16 0.00 0.00
3:15 am 03:15 Clear 51 10.8 48 9 89 89 NW 7 11 29.95 1014 10 16 0.00 0.00
3:35 am 03:35 Clear 51 10.4 48 8.7 89 89 NW 5 7 29.96 1014 10 16 0.00 0.00
3:55 am 03:55 Clear 50 10.2 47 8.5 89 89 NW 5 7 29.96 1015 10 16 0.00 0.00
4:15 am 04:15 Clear 49 9.7 47 8.1 90 90 NW 5 7 29.96 1015 10 16 0.00 0.00
4:35 am 04:35 Clear 50 10.1 47 8.5 90 90 WNW 7 11 29.97 1015 10 16 0.00 0.00
4:55 am 04:55 Clear 50 10 47 8.5 91 91 W 3 6 29.97 1015 10 16 0.00 0.00
5:15 am 05:15 Clear 49 9.7 47 8.5 92 92 W 6 9 29.97 1015 10 16 0.00 0.00
5:35 am 05:35 Clear 50 9.9 47 8.4 90 90 W 6 9 29.97 1015 10 16 0.00 0.00
5:55 am 05:55 Clear 50 10 47 8.3 89 89 WNW 5 7 29.97 1015 10 16 0.00 0.00
6:15 am 06:15 Clear 50 10 47 8.1 88 88 WNW 8 13 29.97 1015 10 16 0.00 0.00
6:35 am 06:35 Clear 50 9.8 47 8.1 89 89 WNW 7 11 29.98 1015 10 16 0.00 0.00
6:55 am 06:55 Clear 49 9.7 46 8 89 89 WNW 6 9 29.98 1015 10 16 0.00 0.00
7:15 am 07:15 Sunny 49 9.5 46 7.7 89 89 WNW 3 6 30.00 1016 10 16 0.00 0.00
7:35 am 07:35 Sunny 49 9.5 46 8 90 90 WNW 3 6 30.00 1016 10 16 0.00 0.00
7:55 am 07:55 Sunny 50 10.2 47 8.3 88 88 WNW 6 9 29.99 1016 10 16 0.00 0.00
8:15 am 08:15 Sunny 52 11 48 8.9 87 87 WNW 3 6 29.99 1016 10 16 0.00 0.00
8:35 am 08:35 Sunny 54 12.4 48 8.9 79 79 W 5 7 29.98 1015 10 16 0.00 0.00
8:55 am 08:55 Sunny 56 13.6 49 9.6 77 77 WNW 6 9 29.98 1015 10 16 0.00 0.00
9:15 am 09:15 Sunny 59 14.8 49 9.5 71 71 WNW 6 9 29.98 1015 10 16 0.00 0.00
9:35 am 09:35 Sunny 62 16.5 50 9.9 65 65 W 5 7 29.96 1015 10 16 0.00 0.00
9:55 am 09:55 Sunny 65 18.5 51 10.3 59 59 W 6 9 29.95 1014 10 16 0.00 0.00
10:15 am 10:15 Sunny 68 20.2 52 10.9 55 55 W 5 7 29.93 1014 10 16 0.00 0.00
10:35 am 10:35 Sunny 72 22.3 52 10.9 49 49 SW 3 6 29.91 1013 10 16 0.00 0.00
10:55 am 10:55 Sunny 75 23.7 53 11.6 47 47 Calm 29.90 1013 10 16 0.00 0.00
11:15 am 11:15 Sunny 78 25.4 49 9.4 36 36 SSW 5 7 29.89 1012 10 16 0.00 0.00
11:35 am 11:35 Sunny 80 26.9 47 8.2 31 31 SW 5 7 29.86 1011 10 16 0.00 0.00
11:55 am 11:55 Sunny 81 27.4 45 7 27 27 S 5 7 29.86 1011 10 16 0.00 0.00
12:15 pm 12:15 Sunny 83 28.1 44 6.6 26 26 S 5 7 29.84 1011 10 16 0.00 0.00
12:35 pm 12:35 Sunny 83 28.6 43 6 24 24 SSW 7 11 29.83 1010 10 16 0.00 0.00
12:55 pm 12:55 Sunny 85 29.2 41 5.1 22 22 SW 6 9 29.83 1010 10 16 0.00 0.00
1:15 pm 13:15 Sunny 84 29.1 42 5.3 22 22 Calm 29.82 1010 10 16 0.00 0.00
1:35 pm 13:35 Sunny 86 29.8 41 5.2 21 21 S 7 11 29.80 1009 10 16 0.00 0.00
1:55 pm 13:55 Sunny 85 29.3 40 4.4 20 20 S 5 7 29.80 1009 10 16 0.00 0.00
2:15 pm 14:15 Sunny 85 29.6 38 3.1 18 18 Calm 29.79 1009 10 16 0.00 0.00
2:35 pm 14:35 Sunny 86 30 37 2.6 17 17 S 3 6 29.78 1008 10 16 0.00 0.00
2:55 pm 14:55 Sunny 87 30.5 38 3.6 18 18 S 5 7 29.77 1008 10 16 0.00 0.00
3:15 pm 15:15 Sunny 87 30.6 38 3.5 18 18 S 6 9 29.75 1008 10 16 0.00 0.00
3:35 pm 15:35 Sunny 87 30.6 40 4.4 19 19 S 7 11 29.74 1007 10 16 0.00 0.00
3:55 pm 15:55 Sunny 87 30.7 40 4.4 19 19 SSW 7 11 29.74 1007 10 16 0.00 0.00
4:15 pm 16:15 Sunny 88 31.3 39 4.1 18 18 SSW 10 17 29.73 1007 10 16 0.00 0.00
4:35 pm 16:35 Sunny 88 31.2 40 4.6 19 19 S 12 19 29.72 1006 10 16 0.00 0.00
4:55 pm 16:55 Sunny 88 31 40 4.4 19 19 SSE 9 15 29.71 1006 10 16 0.00 0.00
5:15 pm 17:15 Sunny 88 31 41 4.8 19 19 SSE 8 13 29.71 1006 10 16 0.00 0.00
5:35 pm 17:35 Sunny 88 31 42 5.6 20 20 SSE 10 17 29.70 1006 10 16 0.00 0.00
5:55 pm 17:55 Sunny 87 30.8 42 5.7 21 21 SSE 12 19 29.69 1006 10 16 0.00 0.00
6:15 pm 18:15 Sunny 87 30.4 44 6.8 23 23 SE 10 17 29.69 1005 10 16 0.00 0.00
6:35 pm 18:35 Sunny 87 30.3 44 6.8 23 23 SSE 9 15 29.68 1005 10 16 0.00 0.00
6:55 pm 18:55 Sunny 86 29.9 46 7.5 24 24 SE 10 17 29.67 1005 10 16 0.00 0.00
7:15 pm 19:15 Sunny 84 29 46 7.5 26 26 SE 12 19 29.68 1005 10 16 0.00 0.00
7:35 pm 19:35 Sunny 82 28 46 8 28 28 SE 12 19 29.68 1005 10 16 0.00 0.00
7:55 pm 19:55 Sunny 80 26.8 48 8.8 32 32 SSE 9 15 29.69 1005 10 16 0.00 0.00
8:15 pm 20:15 Clear 75 23.9 51 10.7 43 43 SSE 9 15 29.71 1006 10 16 0.00 0.00
8:35 pm 20:35 Clear 73 23 52 11 47 47 SSE 9 15 29.72 1006 10 16 0.00 0.00
8:55 pm 20:55 Clear 71 21.8 52 11 50 50 SSE 9 15 29.73 1007 10 16 0.00 0.00
9:15 pm 21:15 Clear 70 21.2 51 10.5 51 51 SSE 8 13 29.73 1007 10 16 0.00 0.00
9:35 pm 21:35 Clear 70 21 49 9.5 48 48 SSE 8 13 29.73 1007 10 16 0.00 0.00
9:55 pm 21:55 Clear 69 20.4 48 9 48 48 SSE 8 13 29.75 1007 10 16 0.00 0.00
10:15 pm 22:15 Clear 68 20.1 48 8.8 48 48 SSE 10 17 29.75 1008 10 16 0.00 0.00
10:35 pm 22:35 Clear 68 20 47 8.6 48 48 SSE 7 11 29.74 1007 10 16 0.00 0.00
10:55 pm 22:55 Clear 66 19.1 48 8.9 52 52 S 5 7 29.75 1007 10 16 0.00 0.00
11:15 pm 23:15 Clear 69 20.6 47 8.6 46 46 S 10 17 29.75 1007 10 16 0.00 0.00
11:35 pm 23:35 Clear 70 21.1 48 8.7 45 45 S 10 17 29.73 1007 10 16 0.00 0.00
11:55 pm 23:55 Clear 70 21.1 48 9 46 46 S 9 15 29.73 1007 10 16 0.00 0.00

Powered by AerisWeather